This is the latest recevied weather packets stored in our database for station/object PY2KO-3. If no packets are shown the sender has not sent any weather packets the latest 10 day(s).
| Time | Temp. | Humidity | Pressure | Rain* | Wind** | Luminosity | Snow |
|---|---|---|---|---|---|---|---|
| 1777700051 | 20.56° C | 91% | 1019.3 hPa | - | - | - | - |
| 1777699151 | 20° C | 92% | 1019.4 hPa | - | - | - | - |
| 1777698250 | 20° C | 92% | 1019.5 hPa | - | - | - | - |
| 1777697351 | 20.56° C | 89% | 1019.6 hPa | - | - | - | - |
| 1777696450 | 20.56° C | 89% | 1019.5 hPa | - | - | - | - |
| 1777695551 | 20.56° C | 89% | 1019.5 hPa | - | - | - | - |
| 1777694651 | 20.56° C | 89% | 1019.7 hPa | - | - | - | - |
| 1777693751 | 21.11° C | 88% | 1019.8 hPa | - | - | - | - |
| 1777692853 | 21.11° C | 88% | 1019.8 hPa | - | - | - | - |
| 1777691951 | 21.11° C | 87% | 1020 hPa | - | - | - | - |
| 1777691051 | 21.11° C | 88% | 1020.2 hPa | - | - | - | - |
| 1777690151 | 21.11° C | 87% | 1020.3 hPa | - | - | - | - |
| 1777689251 | 21.11° C | 88% | 1020.4 hPa | - | - | - | - |
| 1777688351 | 20.56° C | 89% | 1020.8 hPa | - | - | - | - |
| 1777687451 | 20.56° C | 86% | 1020.9 hPa | - | - | - | - |
| 1777686551 | 20.56° C | 85% | 1020.9 hPa | - | - | - | - |
| 1777685651 | 20.56° C | 85% | 1021.3 hPa | - | - | - | - |
| 1777684751 | 21.11° C | 84% | 1021.2 hPa | - | - | - | - |
| 1777683851 | 20.56° C | 85% | 1021.3 hPa | - | - | - | - |
| 1777682951 | 21.67° C | 84% | 1021.2 hPa | - | - | - | - |
| 1777682051 | 21.67° C | 85% | 1021.1 hPa | - | - | - | - |
| 1777681153 | 21.67° C | 83% | 1021.2 hPa | - | - | - | - |
| 1777680251 | 21.67° C | 83% | 1021.1 hPa | - | - | - | - |
| 1777679351 | 22.22° C | 83% | 1021 hPa | - | - | - | - |
| 1777678458 | 22.22° C | 83% | 1020.9 hPa | - | - | - | - |
* Rain since midnight (hover to see other rain measurements)
** Current wind speed in m/s (hover to see current wind gust speed)